Stündliche Wetter Abay (Saryagashskiy rayon)

Heute, 6 März, Samstag

Zeit Temperatur Niederschläge Wind Luftdruck Luftfeuchtigkeit
00:00 +5°C° 0 mm 3 m/S 733 mmHg 49%
01:00 +6°C° 0 mm 2 m/S 732 mmHg 46%
02:00 +6°C° 0 mm 2 m/S 731 mmHg 43%
03:00 +6°C° 0 mm 2 m/S 731 mmHg 42%
04:00 +6°C° 0 mm 2 m/S 730 mmHg 41%
05:00 +7°C° 0 mm 1 m/S 729 mmHg 40%
06:00 +7°C° 0 mm 1 m/S 729 mmHg 40%
07:00 +6°C° 0 mm 2 m/S 729 mmHg 40%
08:00 +6°C° 0 mm 2 m/S 728 mmHg 40%
09:00 +8°C° 0 mm 2 m/S 728 mmHg 36%
10:00 +10°C° 0 mm 2 m/S 728 mmHg 32%
11:00 +12°C° 0 mm 3 m/S 727 mmHg 30%
12:00 +13°C° 0 mm 3 m/S 727 mmHg 32%
13:00 +13°C° 0 mm 3 m/S 728 mmHg 34%
14:00 +13°C° 0 mm 3 m/S 728 mmHg 36%
15:00 +12°C° 0 mm 3 m/S 728 mmHg 38%
16:00 +12°C° 0 mm 4 m/S 728 mmHg 41%
17:00 +11°C° 0 mm 4 m/S 728 mmHg 44%
18:00 +10°C° 0 mm 4 m/S 728 mmHg 45%
19:00 +9°C° 0 mm 3 m/S 728 mmHg 45%
20:00 +9°C° 0 mm 2 m/S 729 mmHg 46%
21:00 +8°C° 0.1 mm 2 m/S 729 mmHg 49%
22:00 +9°C° 0.1 mm 1 m/S 730 mmHg 52%
23:00 +9°C° 0.1 mm 1 m/S 730 mmHg 55%

Morgen, 7 März, Sonntag

Zeit Temperatur Niederschläge Wind Luftdruck Luftfeuchtigkeit
00:00 +8°C° 0.4 mm 1 m/S 730 mmHg 62%
01:00 +8°C° 0.4 mm 1 m/S 730 mmHg 69%
02:00 +6°C° 0.4 mm 2 m/S 730 mmHg 76%
03:00 +6°C° 0.3 mm 2 m/S 731 mmHg 79%
04:00 +7°C° 0.3 mm 3 m/S 731 mmHg 81%
05:00 +6°C° 0.3 mm 4 m/S 732 mmHg 83%
06:00 +6°C° 0.2 mm 4 m/S 732 mmHg 84%
07:00 +7°C° 0.2 mm 3 m/S 732 mmHg 84%
08:00 +7°C° 0.2 mm 3 m/S 733 mmHg 84%
09:00 +7°C° 0.2 mm 3 m/S 733 mmHg 81%
10:00 +7°C° 0.2 mm 2 m/S 733 mmHg 77%
11:00 +9°C° 0.2 mm 1 m/S 733 mmHg 74%
12:00 +9°C° 0 mm 1 m/S 733 mmHg 70%
13:00 +10°C° 0 mm 1 m/S 733 mmHg 66%
14:00 +10°C° 0 mm 2 m/S 733 mmHg 62%
15:00 +11°C° 0 mm 1 m/S 732 mmHg 60%
16:00 +11°C° 0 mm 1 m/S 732 mmHg 59%
17:00 +10°C° 0 mm 0 m/S 732 mmHg 58%
18:00 +10°C° 0 mm 1 m/S 732 mmHg 62%
19:00 +10°C° 0 mm 1 m/S 732 mmHg 66%
20:00 +9°C° 0 mm 1 m/S 732 mmHg 70%
21:00 +8°C° 0 mm 1 m/S 731 mmHg 71%
22:00 +8°C° 0 mm 1 m/S 731 mmHg 72%
23:00 +8°C° 0 mm 1 m/S 731 mmHg 74%

übermorgen, 8 März, Montag

Zeit Temperatur Niederschläge Wind Luftdruck Luftfeuchtigkeit
00:00 +8°C° 0 mm 1 m/S 731 mmHg 74%
01:00 +8°C° 0 mm 1 m/S 731 mmHg 73%
02:00 +8°C° 0 mm 1 m/S 731 mmHg 73%
03:00 +8°C° 0 mm 1 m/S 731 mmHg 73%
04:00 +8°C° 0 mm 1 m/S 731 mmHg 73%
05:00 +7°C° 0 mm 1 m/S 731 mmHg 74%
06:00 +8°C° 0 mm 1 m/S 731 mmHg 73%
07:00 +8°C° 0 mm 1 m/S 732 mmHg 72%
08:00 +9°C° 0 mm 1 m/S 732 mmHg 71%
09:00 +10°C° 0 mm 1 m/S 732 mmHg 66%
10:00 +11°C° 0 mm 1 m/S 733 mmHg 60%
11:00 +13°C° 0 mm 2 m/S 733 mmHg 55%
12:00 +14°C° 0 mm 2 m/S 733 mmHg 52%
13:00 +15°C° 0 mm 2 m/S 733 mmHg 49%
14:00 +15°C° 0 mm 2 m/S 733 mmHg 47%
15:00 +16°C° 0 mm 1 m/S 733 mmHg 46%
16:00 +16°C° 0 mm 1 m/S 733 mmHg 45%
17:00 +15°C° 0 mm 0 m/S 733 mmHg 45%
18:00 +15°C° 0 mm 1 m/S 733 mmHg 49%
19:00 +13°C° 0 mm 1 m/S 733 mmHg 53%
20:00 +12°C° 0 mm 1 m/S 733 mmHg 57%
21:00 +12°C° 0 mm 2 m/S 733 mmHg 59%
22:00 +10°C° 0 mm 2 m/S 733 mmHg 61%
23:00 +10°C° 0 mm 2 m/S 733 mmHg 62%

9 März, Dienstag

Zeit Temperatur Niederschläge Wind Luftdruck Luftfeuchtigkeit
00:00 +10°C° 0 mm 2 m/S 732 mmHg 61%
01:00 +9°C° 0 mm 2 m/S 732 mmHg 60%
02:00 +9°C° 0 mm 2 m/S 732 mmHg 59%
03:00 +9°C° 0 mm 2 m/S 731 mmHg 57%
04:00 +9°C° 0 mm 2 m/S 731 mmHg 54%
05:00 +9°C° 0 mm 2 m/S 730 mmHg 51%
06:00 +9°C° 0 mm 2 m/S 730 mmHg 50%
07:00 +9°C° 0 mm 2 m/S 730 mmHg 50%
08:00 +9°C° 0 mm 2 m/S 730 mmHg 49%
09:00 +12°C° 0 mm 2 m/S 729 mmHg 44%
10:00 +14°C° 0 mm 2 m/S 729 mmHg 39%
11:00 +16°C° 0 mm 1 m/S 729 mmHg 34%
12:00 +18°C° 0 mm 1 m/S 728 mmHg 32%
13:00 +19°C° 0 mm 1 m/S 728 mmHg 31%
14:00 +20°C° 0 mm 1 m/S 727 mmHg 29%
15:00 +19°C° 0 mm 1 m/S 727 mmHg 31%
16:00 +19°C° 0 mm 1 m/S 727 mmHg 34%
17:00 +19°C° 0 mm 1 m/S 726 mmHg 37%
18:00 +18°C° 0 mm 1 m/S 726 mmHg 39%
19:00 +16°C° 0 mm 1 m/S 726 mmHg 42%
20:00 +15°C° 0 mm 2 m/S 726 mmHg 44%
21:00 +15°C° 0 mm 2 m/S 726 mmHg 44%
22:00 +14°C° 0 mm 3 m/S 726 mmHg 45%
23:00 +13°C° 0 mm 3 m/S 726 mmHg 45%

10 März, Mittwoch

Zeit Temperatur Niederschläge Wind Luftdruck Luftfeuchtigkeit
00:00 +13°C° 0 mm 4 m/S 726 mmHg 49%
01:00 +13°C° 0 mm 5 m/S 726 mmHg 54%
02:00 +13°C° 0 mm 6 m/S 725 mmHg 58%
03:00 +12°C° 0 mm 5 m/S 725 mmHg 59%
04:00 +12°C° 0 mm 4 m/S 725 mmHg 59%
05:00 +11°C° 0 mm 3 m/S 725 mmHg 60%
06:00 +12°C° 0.1 mm 3 m/S 725 mmHg 59%
07:00 +12°C° 0.1 mm 4 m/S 725 mmHg 59%
08:00 +12°C° 0.1 mm 4 m/S 726 mmHg 59%
09:00 +13°C° 0.1 mm 5 m/S 726 mmHg 57%
10:00 +14°C° 0.1 mm 5 m/S 727 mmHg 55%
11:00 +15°C° 0.1 mm 6 m/S 727 mmHg 53%
12:00 +15°C° 0 mm 5 m/S 728 mmHg 50%
13:00 +15°C° 0 mm 4 m/S 728 mmHg 47%
14:00 +15°C° 0 mm 4 m/S 729 mmHg 44%
15:00 +14°C° 0.2 mm 3 m/S 729 mmHg 52%
16:00 +13°C° 0.2 mm 2 m/S 729 mmHg 60%
17:00 +12°C° 0.2 mm 2 m/S 729 mmHg 67%
18:00 +12°C° 0.2 mm 2 m/S 730 mmHg 68%
19:00 +12°C° 0.2 mm 2 m/S 731 mmHg 69%
20:00 +12°C° 0.2 mm 2 m/S 731 mmHg 69%
21:00 +10°C° 0.1 mm 2 m/S 732 mmHg 71%
22:00 +9°C° 0.1 mm 3 m/S 732 mmHg 74%
23:00 +9°C° 0.1 mm 3 m/S 732 mmHg 76%

11 März, Donnerstag

Zeit Temperatur Niederschläge Wind Luftdruck Luftfeuchtigkeit
00:00 +8°C° 0 mm 3 m/S 732 mmHg 78%
01:00 +7°C° 0 mm 3 m/S 732 mmHg 80%
02:00 +5°C° 0 mm 3 m/S 732 mmHg 82%
03:00 +5°C° 0 mm 3 m/S 732 mmHg 81%
04:00 +5°C° 0 mm 3 m/S 732 mmHg 81%
05:00 +4°C° 0 mm 3 m/S 732 mmHg 81%
06:00 +6°C° 0 mm 2 m/S 733 mmHg 79%
07:00 +6°C° 0 mm 2 m/S 733 mmHg 76%
08:00 +6°C° 0 mm 2 m/S 733 mmHg 74%
09:00 +8°C° 0 mm 2 m/S 733 mmHg 65%
10:00 +10°C° 0 mm 1 m/S 733 mmHg 56%
11:00 +12°C° 0 mm 1 m/S 733 mmHg 47%
12:00 +13°C° 0 mm 1 m/S 732 mmHg 44%
13:00 +14°C° 0 mm 1 m/S 732 mmHg 41%
14:00 +15°C° 0 mm 1 m/S 732 mmHg 38%
15:00 +15°C° 0 mm 1 m/S 732 mmHg 36%
16:00 +15°C° 0 mm 1 m/S 731 mmHg 34%
17:00 +14°C° 0 mm 0 m/S 731 mmHg 32%
18:00 +14°C° 0 mm 1 m/S 731 mmHg 36%
19:00 +13°C° 0 mm 1 m/S 731 mmHg 39%
20:00 +12°C° 0 mm 2 m/S 731 mmHg 43%
21:00 +10°C° 0 mm 2 m/S 731 mmHg 45%
22:00 +10°C° 0 mm 2 m/S 730 mmHg 47%
23:00 +9°C° 0 mm 3 m/S 730 mmHg 49%
Mehr zeigen

Wir brauchen deine Erlaubnis

Meteoprog und unser Service Anbieter werden persönliche Daten aufbewahren, so wie Cookies, Geräte Bezeichnung oder ähnliche Technologien von deinem Gerät und Prozess, so wie Persönliche Daten Inhalte und Werbungen, genauso wie social Media und den Verkehr zu analysieren.

  • Aufbewahrung und/oder Zugang zu deiner Geräte Informationen.

    Cookies, Geräte Bezeichnung oder andere Informationen, können aufbewahrt oder Zugang zu deinem Gerät erhalten, für den Grund, der oben angegeben wird.

  • Personalisierte Werbung und Inhalte, Messungen, Einblick in das Publikum und Produkt Entwicklung.

    Werbungen und Inhalte können personalisiert werden, basierend auf ein Profil. Mehr Daten können besser personalisierte Werbungen und Inhalte hinzufügen. Werbung und Inhalte können gezeigt und gemessen werden. Einblicke über das Publikum, welche die Werbung gesehen haben und den Inhalt, können abgeleitet werden. So wie Daten können genutzt werden, um es zu verbessern oder die Benutzer Erfahrung zu verbessern das System und die Software.

Wenn du “Ich stimme zu” klickst, erlaubst du uns, die Cookies zu benutzen die Geräte Bezeichnung, den Web oder ähnliche Technologien zu benutzen. Deine Settings, können in deinem Gerät bei deinem Browser geändert werden.

Für den bestimmten Zweck, berechtigten Interessen beruhen darauf, mehr als auf den Inhalt. Du kannst mehr darüber in unseren Privaten und Cookie Politik lesen.